AEE78U LGAV-LGIR

Flight info

Callsign AEE78U
Flight time 0h 37m
Altitude 25000
Route KEA UL607 GIVIS T514 XAVIS
Aircraft A20N/M-SDE2E3FGHIRWXY/LB1

Departure

Time 2026-05-06 10:17
Airport Athens Eleftherios Venizelos International Airport (LGAV)

Arrival

Time 2026-05-06 10:54
Airport Heraklion International Nikos Kazantzakis Airport (LGIR)
Time Latitude Longitude Altitude Speed Heading
2026-05-06 09:56 37.93697 23.94924 284 ft 0 kts 301°
2026-05-06 10:04 37.93692 23.94936 288 ft 2 kts 301°
2026-05-06 10:04 37.93684 23.94952 288 ft 2 kts 301°
2026-05-06 10:05 37.93673 23.94973 284 ft 2 kts 301°
2026-05-06 10:05 37.93668 23.94984 287 ft 2 kts 302°
2026-05-06 10:05 37.93661 23.95000 282 ft 2 kts 286°
2026-05-06 10:05 37.93659 23.95019 282 ft 2 kts 238°
2026-05-06 10:06 37.93662 23.95025 282 ft 0 kts 205°
2026-05-06 10:09 37.93661 23.95024 282 ft 1 kts 205°
2026-05-06 10:09 37.93652 23.95018 285 ft 1 kts 209°
2026-05-06 10:10 37.93627 23.94997 286 ft 6 kts 215°
2026-05-06 10:10 37.93585 23.94956 284 ft 7 kts 218°
2026-05-06 10:10 37.93540 23.94912 283 ft 8 kts 217°
2026-05-06 10:10 37.93496 23.94871 283 ft 7 kts 213°
2026-05-06 10:11 37.93454 23.94873 286 ft 6 kts 149°
2026-05-06 10:11 37.93421 23.94921 284 ft 7 kts 127°
2026-05-06 10:11 37.93390 23.94969 284 ft 6 kts 137°
2026-05-06 10:11 37.93346 23.94984 284 ft 5 kts 197°
2026-05-06 10:12 37.93307 23.94953 289 ft 9 kts 214°
2026-05-06 10:12 37.93249 23.94899 285 ft 12 kts 217°
2026-05-06 10:12 37.93174 23.94827 288 ft 15 kts 217°
2026-05-06 10:12 37.93092 23.94749 290 ft 16 kts 217°
2026-05-06 10:13 37.93008 23.94670 292 ft 14 kts 217°
2026-05-06 10:13 37.92936 23.94602 288 ft 13 kts 217°
2026-05-06 10:13 37.92867 23.94537 288 ft 13 kts 217°
2026-05-06 10:13 37.92788 23.94461 293 ft 16 kts 217°
2026-05-06 10:14 37.92695 23.94372 293 ft 18 kts 217°
2026-05-06 10:14 37.92595 23.94276 293 ft 18 kts 217°
2026-05-06 10:14 37.92510 23.94194 295 ft 10 kts 217°
2026-05-06 10:14 37.92463 23.94162 293 ft 8 kts 194°
2026-05-06 10:15 37.92420 23.94186 297 ft 6 kts 122°
2026-05-06 10:15 37.92416 23.94252 292 ft 10 kts 89°
2026-05-06 10:15 37.92417 23.94353 295 ft 13 kts 89°
2026-05-06 10:15 37.92451 23.94423 292 ft 9 kts 38°
2026-05-06 10:16 37.92534 23.94500 291 ft 34 kts 38°
2026-05-06 10:16 37.92925 23.94871 290 ft 103 kts 37°
2026-05-06 10:16 37.93644 23.95552 278 ft 153 kts 37°
2026-05-06 10:16 37.94574 23.96412 626 ft 165 kts 40°
2026-05-06 10:17 37.95479 23.97271 1328 ft 163 kts 40°
2026-05-06 10:17 37.96403 23.98176 1874 ft 172 kts 39°
2026-05-06 10:17 37.97391 23.99147 2311 ft 188 kts 38°
2026-05-06 10:17 37.98487 24.00220 2720 ft 211 kts 37°
2026-05-06 10:18 37.99719 24.01418 3195 ft 236 kts 37°
2026-05-06 10:18 38.01080 24.02721 3871 ft 253 kts 36°
2026-05-06 10:18 38.02487 24.04065 4934 ft 255 kts 37°
2026-05-06 10:18 38.03707 24.05804 5664 ft 276 kts 62°
2026-05-06 10:19 38.04165 24.08173 6692 ft 280 kts 90°
2026-05-06 10:19 38.03726 24.10585 7702 ft 286 kts 116°
2026-05-06 10:19 38.02473 24.12552 8660 ft 292 kts 143°
2026-05-06 10:19 38.00674 24.13699 9603 ft 297 kts 163°
2026-05-06 10:20 37.98667 24.14442 10479 ft 306 kts 165°
2026-05-06 10:20 37.96563 24.15301 10906 ft 330 kts 161°
2026-05-06 10:20 37.94363 24.16436 11307 ft 351 kts 156°
2026-05-06 10:20 37.92128 24.17778 12091 ft 358 kts 154°
2026-05-06 10:21 37.89886 24.19212 12966 ft 364 kts 153°
2026-05-06 10:21 37.87622 24.20691 13856 ft 368 kts 153°
2026-05-06 10:21 37.85325 24.22195 14575 ft 375 kts 153°
2026-05-06 10:21 37.82982 24.23726 15267 ft 382 kts 153°
2026-05-06 10:22 37.80598 24.25277 15960 ft 389 kts 153°
2026-05-06 10:22 37.78170 24.26853 16648 ft 395 kts 154°
2026-05-06 10:22 37.75704 24.28450 17328 ft 402 kts 154°
2026-05-06 10:22 37.73196 24.30071 17996 ft 408 kts 154°
2026-05-06 10:23 37.70645 24.31720 18632 ft 414 kts 154°
2026-05-06 10:23 37.68062 24.33386 19301 ft 417 kts 154°
2026-05-06 10:23 37.65465 24.35061 19967 ft 421 kts 154°
2026-05-06 10:23 37.62837 24.36753 20589 ft 426 kts 154°
2026-05-06 10:24 37.60215 24.38440 21212 ft 430 kts 154°
2026-05-06 10:24 37.57529 24.40170 21825 ft 435 kts 154°
2026-05-06 10:24 37.54822 24.41913 22446 ft 439 kts 154°
2026-05-06 10:24 37.52095 24.43666 23056 ft 443 kts 154°
2026-05-06 10:25 37.49333 24.45438 23651 ft 447 kts 154°
2026-05-06 10:25 37.46538 24.47229 24165 ft 451 kts 154°
2026-05-06 10:25 37.43734 24.49024 24681 ft 454 kts 154°
2026-05-06 10:25 37.40901 24.50835 24998 ft 457 kts 154°
2026-05-06 10:26 37.38067 24.52646 25085 ft 458 kts 154°
2026-05-06 10:26 37.35255 24.54441 25106 ft 457 kts 154°
2026-05-06 10:26 37.32416 24.56252 25107 ft 457 kts 154°
2026-05-06 10:26 37.29578 24.58061 25108 ft 457 kts 154°
2026-05-06 10:27 37.26743 24.59867 25110 ft 457 kts 154°
2026-05-06 10:27 37.23903 24.61673 25110 ft 457 kts 154°
2026-05-06 10:27 37.21064 24.63477 25110 ft 457 kts 154°
2026-05-06 10:27 37.18221 24.65283 25110 ft 457 kts 154°
2026-05-06 10:28 37.15387 24.67082 25107 ft 457 kts 154°
2026-05-06 10:28 37.12549 24.68881 25101 ft 457 kts 154°
2026-05-06 10:28 37.09714 24.70678 25107 ft 457 kts 154°
2026-05-06 10:28 37.06877 24.72473 25107 ft 457 kts 154°
2026-05-06 10:29 37.04043 24.74266 25109 ft 457 kts 154°
2026-05-06 10:29 37.01206 24.76058 25108 ft 457 kts 154°
2026-05-06 10:29 36.98406 24.77826 25109 ft 457 kts 154°
2026-05-06 10:29 36.95568 24.79616 25108 ft 457 kts 154°
2026-05-06 10:30 36.92732 24.81404 25107 ft 457 kts 154°
2026-05-06 10:30 36.89892 24.83192 25109 ft 457 kts 154°
2026-05-06 10:30 36.87052 24.84980 25099 ft 457 kts 155°
2026-05-06 10:30 36.84221 24.86761 25112 ft 454 kts 155°
2026-05-06 10:31 36.81396 24.88536 25112 ft 454 kts 155°
2026-05-06 10:31 36.78574 24.90306 25107 ft 455 kts 155°
2026-05-06 10:31 36.75748 24.92079 25111 ft 454 kts 155°
2026-05-06 10:31 36.72918 24.93851 25110 ft 454 kts 155°
2026-05-06 10:32 36.70093 24.95620 25113 ft 454 kts 155°
2026-05-06 10:32 36.67268 24.97387 25113 ft 454 kts 155°
2026-05-06 10:32 36.64441 24.99155 25116 ft 455 kts 155°
2026-05-06 10:32 36.61615 25.00920 25111 ft 455 kts 155°
2026-05-06 10:33 36.58779 25.02690 25114 ft 455 kts 155°
2026-05-06 10:33 36.55949 25.04455 25112 ft 455 kts 155°
2026-05-06 10:33 36.53149 25.06200 25112 ft 455 kts 155°
2026-05-06 10:33 36.50316 25.07963 25114 ft 455 kts 155°
2026-05-06 10:34 36.47475 25.09730 25117 ft 455 kts 155°
2026-05-06 10:34 36.44640 25.11492 25117 ft 455 kts 155°
2026-05-06 10:34 36.41807 25.13251 25115 ft 455 kts 155°
2026-05-06 10:34 36.38970 25.15011 25110 ft 455 kts 155°
2026-05-06 10:35 36.36140 25.16766 24855 ft 455 kts 155°
2026-05-06 10:35 36.33302 25.18525 24317 ft 455 kts 155°
2026-05-06 10:35 36.30455 25.20286 23434 ft 460 kts 155°
2026-05-06 10:35 36.27581 25.22062 22526 ft 461 kts 155°
2026-05-06 10:36 36.24729 25.23824 21947 ft 454 kts 155°
2026-05-06 10:36 36.21920 25.25560 21351 ft 448 kts 155°
2026-05-06 10:36 36.19186 25.27247 20772 ft 442 kts 155°
2026-05-06 10:36 36.16441 25.28940 20186 ft 436 kts 155°
2026-05-06 10:37 36.13742 25.30602 19611 ft 431 kts 155°
2026-05-06 10:37 36.11066 25.32249 19000 ft 427 kts 154°
2026-05-06 10:37 36.08417 25.33878 18402 ft 424 kts 155°
2026-05-06 10:37 36.05793 25.35492 17849 ft 417 kts 155°
2026-05-06 10:38 36.03209 25.37078 17293 ft 411 kts 155°
2026-05-06 10:38 36.00664 25.38640 16738 ft 406 kts 154°
2026-05-06 10:38 35.98169 25.40169 16190 ft 402 kts 154°
2026-05-06 10:38 35.95707 25.41678 15648 ft 398 kts 154°
2026-05-06 10:39 35.93243 25.43186 15101 ft 394 kts 154°
2026-05-06 10:39 35.90792 25.44686 14562 ft 391 kts 154°
2026-05-06 10:39 35.88362 25.46171 14014 ft 388 kts 154°
2026-05-06 10:39 35.85952 25.47644 13455 ft 384 kts 154°
2026-05-06 10:40 35.83563 25.49102 12920 ft 380 kts 154°
2026-05-06 10:40 35.81207 25.50539 12387 ft 376 kts 154°
2026-05-06 10:40 35.78877 25.51959 11866 ft 372 kts 154°
2026-05-06 10:40 35.76568 25.53366 11346 ft 368 kts 154°
2026-05-06 10:41 35.74310 25.54742 10834 ft 365 kts 154°
2026-05-06 10:41 35.72043 25.56122 10418 ft 359 kts 154°
2026-05-06 10:41 35.69861 25.57496 10270 ft 344 kts 149°
2026-05-06 10:41 35.67957 25.59145 10102 ft 325 kts 140°
2026-05-06 10:42 35.66244 25.60854 9773 ft 311 kts 140°
2026-05-06 10:42 35.64574 25.62510 9264 ft 304 kts 140°
2026-05-06 10:42 35.62950 25.64114 9053 ft 298 kts 140°
2026-05-06 10:42 35.61276 25.65693 8928 ft 308 kts 148°
2026-05-06 10:43 35.59278 25.66577 8673 ft 305 kts 174°
2026-05-06 10:43 35.57191 25.66390 8287 ft 301 kts 199°
2026-05-06 10:43 35.55387 25.65169 7865 ft 295 kts 225°
2026-05-06 10:44 35.53858 25.60797 7015 ft 282 kts 270°
2026-05-06 10:44 35.53761 25.58432 6609 ft 282 kts 265°
2026-05-06 10:44 35.53359 25.56083 6228 ft 281 kts 254°
2026-05-06 10:44 35.52631 25.53866 5875 ft 279 kts 245°
2026-05-06 10:45 35.51709 25.51786 5510 ft 277 kts 240°
2026-05-06 10:45 35.50695 25.49785 5146 ft 275 kts 238°
2026-05-06 10:45 35.49650 25.47823 4780 ft 272 kts 238°
2026-05-06 10:45 35.48612 25.45894 4419 ft 270 kts 238°
2026-05-06 10:46 35.47582 25.43977 4059 ft 268 kts 238°
2026-05-06 10:46 35.46531 25.42095 3694 ft 267 kts 229°
2026-05-06 10:46 35.45034 25.40789 3340 ft 266 kts 201°
2026-05-06 10:46 35.43227 25.40506 3067 ft 264 kts 172°
2026-05-06 10:47 35.41529 25.41284 2993 ft 256 kts 150°
2026-05-06 10:47 35.40053 25.42334 2987 ft 234 kts 149°
2026-05-06 10:47 35.38739 25.43293 2981 ft 211 kts 149°
2026-05-06 10:47 35.37488 25.44008 3011 ft 185 kts 172°
2026-05-06 10:48 35.36337 25.43835 2988 ft 157 kts 207°
2026-05-06 10:48 35.35553 25.43051 2883 ft 140 kts 236°
2026-05-06 10:48 35.35111 25.41989 2574 ft 142 kts 248°
2026-05-06 10:48 35.34685 25.40856 2149 ft 150 kts 247°
2026-05-06 10:49 35.34239 25.39695 1780 ft 151 kts 246°
2026-05-06 10:49 35.33943 25.38931 1563 ft 149 kts 246°
2026-05-06 10:49 35.33356 25.37407 1228 ft 148 kts 246°
2026-05-06 10:49 35.32936 25.36313 1157 ft 135 kts 249°
2026-05-06 10:50 35.32767 25.35167 1157 ft 138 kts 274°
2026-05-06 10:50 35.32830 25.34381 1154 ft 137 kts 278°
2026-05-06 10:50 35.32950 25.32849 1145 ft 139 kts 277°
2026-05-06 10:50 35.33005 25.32042 1148 ft 142 kts 276°
2026-05-06 10:51 35.33087 25.30861 1146 ft 140 kts 276°
2026-05-06 10:51 35.33170 25.29661 1146 ft 141 kts 276°
2026-05-06 10:51 35.33255 25.28459 1151 ft 140 kts 276°
2026-05-06 10:51 35.33338 25.27269 1156 ft 142 kts 276°
2026-05-06 10:52 35.33423 25.26079 1126 ft 142 kts 276°
2026-05-06 10:52 35.33501 25.24875 986 ft 143 kts 275°
2026-05-06 10:52 35.33572 25.23662 764 ft 142 kts 275°
2026-05-06 10:52 35.33667 25.22450 593 ft 142 kts 277°
2026-05-06 10:53 35.33755 25.21235 549 ft 146 kts 275°
2026-05-06 10:53 35.33830 25.20031 351 ft 143 kts 277°
2026-05-06 10:53 35.33915 25.18821 140 ft 142 kts 277°
2026-05-06 10:53 35.33994 25.17761 97 ft 90 kts 274°
2026-05-06 10:54 35.34021 25.17365 86 ft 10 kts 274°
2026-05-06 10:54 35.34025 25.17178 84 ft 7 kts 255°
2026-05-06 10:54 35.33998 25.17122 82 ft 0 kts 239°
2026-05-06 10:54 35.33995 25.17117 82 ft 3 kts 239°